New Orleans Lakefront, LA

5:24 AM CST on February 18, 2018 (GMT -0600)
Lakefront

Weather History for KNEW - October, 2012

Change the Weather History Date:

Tuesday, October 9, 2012

  Actual Average Record
Temperature  
Mean Temperature 67 °F 73 °F  
Max Temperature 76 °F 82 °F 92 °F (1990)
Min Temperature 57 °F 65 °F 44 °F (1964)
Degree Days  
Heating Degree Days 0 0  
Month to date heating degree days 0 0  
Since 1 July heating degree days 0 0  
Cooling Degree Days 2 9  
Month to date cooling degree days 54 89  
Year to date cooling degree days 3195 2778  
Growing Degree Days 16 (Base 50)    
Moisture  
Dew Point 56 °F    
Average Humidity 71    
Maximum Humidity 87    
Minimum Humidity 54    
Precipitation  
Precipitation 0.00 in 0.12 in 4.40 in (2004)
Month to date precipitation T 1.02  
Year to date precipitation 60.25 50.20  
Snow  
Snow 0.00 in - - ()
Month to date snowfall 0.0  
Since 1 July snowfall 0.0  
Since 1 September snowfall 0.0  
Snow Depth 0.00 in    
Sea Level Pressure  
Sea Level Pressure 30.08 in    
Wind  
Wind Speed 4 mph (ENE)    
Max Wind Speed 12 mph    
Max Gust Speed 21 mph    
Visibility 10 miles    
Events      
T = Trace of Precipitation, MM = Missing Value Source: NWS Daily Summary

Daily Weather History Graph

Daily Weather History Graph

Search for Another Location

Airport or City:

Trip Planner

Search our weather history database for the weather conditions in past years. The results will help you decide how hot, cold, wet, or windy it might be!

Date:

Astronomy

Oct. 09, 2012 Rise Set
Actual Time 6:58 AM CDT 6:35 PM CDT
Civil Twilight 6:34 AM CDT 6:59 PM CDT
Nautical Twilight 6:06 AM CDT 7:27 PM CDT
Astronomical Twilight 5:39 AM CDT 7:54 PM CDT
Moon 1:00 AM CDT (10/9) 2:39 PM CDT (10/9)
Length of Visible Light 12h 24m
Length of Day
11h 36m
Last Quarter, 36% of the Moon is Illuminated
Oct 9
Last Quarter
Oct 15
New
Oct 21
First Quarter
Oct 29
Full
Nov 6
Last Quarter

Hourly Weather History & Observations

Time (CDT) Temp. Dew Point Humidity Pressure Visibility Wind Dir Wind Speed Gust Speed Precip Events Conditions
12:53 AM 64.9 °F 54.0 °F 68% 30.09 in 10.0 mi NE 13.8 mph - N/A   Clear
1:53 AM 63.0 °F 53.1 °F 70% 30.08 in 10.0 mi East 13.8 mph - N/A   Clear
2:53 AM 60.8 °F 53.6 °F 77% 30.10 in 10.0 mi East 13.8 mph - N/A   Clear
3:53 AM 60.1 °F 53.1 °F 78% 30.08 in 10.0 mi ENE 15.0 mph - N/A   Clear
4:53 AM 59.0 °F 53.1 °F 81% 30.08 in 10.0 mi ENE 13.8 mph - N/A   Clear
5:53 AM 59.0 °F 53.1 °F 81% 30.09 in 10.0 mi ENE 12.7 mph - N/A   Clear
6:53 AM 59.0 °F 53.1 °F 81% 30.10 in 10.0 mi East 11.5 mph - N/A   Clear
7:53 AM 60.1 °F 54.0 °F 80% 30.11 in 10.0 mi ENE 9.2 mph - N/A   Clear
8:53 AM 62.1 °F 54.0 °F 75% 30.13 in 10.0 mi ENE 10.4 mph - N/A   Clear
9:53 AM 64.0 °F 55.0 °F 73% 30.14 in 10.0 mi ENE 8.1 mph - N/A   Clear
10:53 AM 66.9 °F 57.0 °F 70% 30.14 in 10.0 mi NNE 8.1 mph - N/A   Clear
11:53 AM 68.0 °F 55.9 °F 65% 30.12 in 10.0 mi NNE 6.9 mph - N/A   Clear
12:53 PM 70.0 °F 57.0 °F 63% 30.09 in 10.0 mi NNE 5.8 mph - N/A   Clear
1:53 PM 72.0 °F 59.0 °F 64% 30.06 in 10.0 mi North 5.8 mph - N/A   Clear
2:53 PM 73.0 °F 57.0 °F 57% 30.05 in 10.0 mi NNW 6.9 mph - N/A   Clear
3:53 PM 73.9 °F 57.0 °F 55% 30.03 in 10.0 mi North 6.9 mph - N/A   Clear
4:53 PM 73.9 °F 57.9 °F 57% 30.02 in 10.0 mi NNW 5.8 mph - N/A   Clear
5:53 PM 73.0 °F 57.9 °F 59% 30.02 in 10.0 mi WNW 4.6 mph - N/A   Clear
6:53 PM 70.0 °F 57.9 °F 65% 30.02 in 10.0 mi South 4.6 mph - N/A   Clear
7:53 PM 68.0 °F 59.0 °F 73% 30.03 in 10.0 mi SE 5.8 mph - N/A   Clear
8:53 PM 66.9 °F 57.9 °F 73% 30.04 in 10.0 mi SSE 6.9 mph - N/A   Clear
9:53 PM 66.9 °F 61.0 °F 81% 30.06 in 10.0 mi SE 5.8 mph - N/A   Clear
10:53 PM 64.9 °F 62.1 °F 90% 30.06 in 10.0 mi SSE 3.5 mph - N/A   Clear
11:53 PM 64.9 °F 62.1 °F 90% 30.06 in 9.0 mi SE 4.6 mph - N/A   Clear